Rogers City, MI

4:52 AM EST on December 03, 2016 (GMT -0500)
Presque Isle County

Weather History for KPZQ - January, 2014

Change the Weather History Date:

Wednesday, January 15, 2014

  Actual Average (KAPN) Record (KAPN)
Temperature  
Mean Temperature 22 °F 19 °F  
Max Temperature 31 °F 27 °F 48 °F (1953)
Min Temperature 13 °F 11 °F -28 °F (1963)
Degree Days  
Heating Degree Days 43 46  
Month to date heating degree days 679  
Since 1 July heating degree days 3740  
Moisture  
Dew Point 15 °F    
Average Humidity 86    
Maximum Humidity 100    
Minimum Humidity 76    
Precipitation  
Precipitation 0.00 in 0.05 in 0.44 in (1952)
Month to date precipitation 0.86  
Year to date precipitation 0.86  
Snow  
Snow 0.00 in 0.70 in 5.70 in (2007)
Month to date snowfall 10.5  
Since 1 July snowfall 37.8  
Snow Depth -    
Sea Level Pressure  
Sea Level Pressure 29.76 in    
Wind  
Wind Speed 10 mph (WNW)    
Max Wind Speed 20 mph    
Max Gust Speed 29 mph    
Visibility 6 miles    
Events Snow    
T = Trace of Precipitation, MM = Missing Value Source: NWS Daily Summary

Daily Weather History Graph

Daily Weather History Graph

Search for Another Location

Airport or City:

Trip Planner

Search our weather history database for the weather conditions in past years. The results will help you decide how hot, cold, wet, or windy it might be!

Date:

Astronomy

Jan. 15, 2014 Rise Set
Actual Time 8:11 AM EST 5:18 PM EST
Civil Twilight 7:38 AM EST 5:51 PM EST
Nautical Twilight 7:01 AM EST 6:28 PM EST
Astronomical Twilight 6:26 AM EST 7:03 PM EST
Moon 5:18 PM EST (1/15) 7:24 AM EST (1/15)
Length of Visible Light 10h 13m
Length of Day
9h 07m
Full, 100% of the Moon is Illuminated
Jan 15
Full
Jan 15
Full
Jan 24
Last Quarter
Jan 30
New
Feb 6
First Quarter

Hourly Weather History & Observations

Time (EST) Temp. Windchill Dew Point Humidity Pressure Visibility Wind Dir Wind Speed Gust Speed Precip Events Conditions
12:15 AM 31.5 °F 28.1 °F 30.9 °F 98% 29.56 in 2.5 mi NNE 3.5 mph - N/A Snow Light Snow
12:35 AM 31.3 °F 24.7 °F 30.9 °F 99% 29.55 in 2.0 mi North 6.9 mph - N/A Snow Light Snow
12:55 AM 30.6 °F 23.8 °F 30.0 °F 98% 29.55 in 2.5 mi NNE 6.9 mph - N/A Snow Light Snow
1:15 AM 30.6 °F 25.8 °F 30.0 °F 98% 29.54 in 1.8 mi NNE 4.6 mph - N/A Snow Light Snow
1:35 AM 30.7 °F 24.1 °F 30.2 °F 98% 29.53 in 1.5 mi NNE 6.9 mph - N/A Snow Light Snow
1:55 AM 30.7 °F - 30.4 °F 99% 29.52 in 1.2 mi Calm Calm - N/A Snow Snow
2:15 AM 30.2 °F - 30.2 °F 100% 29.52 in 0.8 mi Calm Calm - N/A Snow Snow
2:35 AM 28.8 °F 17.5 °F 28.2 °F 98% 29.52 in 1.0 mi North 15.0 mph 21.9 mph N/A Snow Light Snow
2:55 AM 27.5 °F 15.4 °F 27.1 °F 99% 29.54 in 1.2 mi North 16.1 mph 25.3 mph N/A Snow Light Snow
3:15 AM 25.5 °F 12.0 °F 24.8 °F 97% 29.56 in 1.5 mi North 18.4 mph 27.6 mph N/A Snow Light Snow
3:35 AM 24.3 °F 10.0 °F 23.5 °F 97% 29.58 in 2.0 mi NNW 19.6 mph 27.6 mph N/A Snow Light Snow
3:55 AM 23.2 °F 9.4 °F 22.1 °F 96% 29.59 in 1.0 mi NNW 17.3 mph 26.5 mph N/A Snow Light Snow
4:15 AM 22.1 °F 7.6 °F 20.8 °F 95% 29.60 in 1.8 mi NNW 18.4 mph 28.8 mph N/A Snow Light Snow
4:35 AM 21.2 °F 6.4 °F 19.9 °F 95% 29.61 in 4.0 mi NNW 18.4 mph 26.5 mph N/A Snow Light Snow
4:55 AM 20.5 °F 6.4 °F 18.9 °F 93% 29.62 in 1.5 mi NNW 16.1 mph 25.3 mph N/A Snow Light Snow
5:15 AM 19.4 °F 5.0 °F 18.1 °F 95% 29.64 in 0.5 mi NNW 16.1 mph 25.3 mph N/A Snow Snow
5:35 AM 19.2 °F 4.3 °F 17.6 °F 93% 29.65 in 1.2 mi NNW 17.3 mph 23.0 mph N/A Snow Light Snow
5:54 AM 19.0 °F 4.0 °F 17.2 °F 93% 29.66 in 1.5 mi NNW 17.3 mph 24.2 mph N/A Snow Light Snow
6:15 AM 18.7 °F 4.0 °F 16.0 °F 89% 29.67 in 2.5 mi NNW 16.1 mph 23.0 mph N/A Snow Light Snow
6:35 AM 18.7 °F 4.6 °F 16.2 °F 90% 29.68 in 1.8 mi NNW 15.0 mph 19.6 mph N/A Snow Light Snow
6:55 AM 18.5 °F 4.3 °F 16.0 °F 90% 29.69 in 1.8 mi NNW 15.0 mph 21.9 mph N/A Snow Light Snow
7:15 AM 18.5 °F 3.3 °F 15.4 °F 88% 29.71 in 4.0 mi NW 17.3 mph 24.2 mph N/A Snow Light Snow
7:35 AM 18.0 °F 4.2 °F 15.1 °F 88% 29.72 in 2.0 mi NW 13.8 mph 19.6 mph N/A Snow Light Snow
7:55 AM 17.4 °F 4.7 °F 14.7 °F 89% 29.73 in 1.8 mi NW 11.5 mph 18.4 mph N/A Snow Light Snow
8:15 AM 17.4 °F 5.4 °F 14.4 °F 88% 29.74 in 3.0 mi NW 10.4 mph 21.9 mph N/A Snow Light Snow
8:34 AM 17.2 °F 3.9 °F 14.4 °F 88% 29.76 in 1.0 mi WNW 12.7 mph 20.7 mph N/A Snow Light Snow
8:55 AM 16.5 °F 3.0 °F 13.5 °F 88% 29.77 in 1.8 mi NW 12.7 mph 17.3 mph N/A Snow Light Snow
9:15 AM 16.3 °F 2.1 °F 12.9 °F 86% 29.78 in 2.0 mi NW 13.8 mph 18.4 mph N/A Snow Light Snow
9:35 AM 16.3 °F 1.6 °F 12.9 °F 86% 29.79 in 2.5 mi NW 15.0 mph 19.6 mph N/A Snow Light Snow
9:55 AM 16.2 °F 1.3 °F 12.7 °F 86% 29.80 in 1.8 mi NW 15.0 mph 21.9 mph N/A Snow Light Snow
10:15 AM 16.3 °F 4.9 °F 13.1 °F 87% 29.81 in 1.2 mi NW 9.2 mph 18.4 mph N/A Snow Light Snow
10:35 AM 16.5 °F 3.0 °F 13.1 °F 86% 29.81 in 2.0 mi NW 12.7 mph 18.4 mph N/A Snow Light Snow
10:55 AM 16.5 °F 5.1 °F 13.1 °F 86% 29.82 in 1.8 mi WNW 9.2 mph 17.3 mph N/A Snow Light Snow
11:15 AM 15.8 °F 3.4 °F 12.6 °F 87% 29.82 in 1.0 mi WNW 10.4 mph 16.1 mph N/A Snow Light Snow
11:35 AM 16.0 °F 4.4 °F 12.9 °F 88% 29.82 in 1.5 mi West 9.2 mph 16.1 mph N/A Snow Light Snow
11:55 AM 15.8 °F 1.4 °F 11.8 °F 84% 29.83 in 3.0 mi West 13.8 mph 20.7 mph N/A Snow Light Snow
12:15 PM 15.8 °F 1.4 °F 11.5 °F 83% 29.82 in 4.0 mi West 13.8 mph 19.6 mph N/A Snow Light Snow
12:35 PM 15.8 °F 3.4 °F 11.1 °F 82% 29.83 in 7.0 mi West 10.4 mph 16.1 mph N/A Snow Light Snow
12:55 PM 15.4 °F 1.6 °F 10.4 °F 80% 29.83 in 7.0 mi WNW 12.7 mph 23.0 mph N/A Snow Light Snow
1:15 PM 15.8 °F 2.1 °F 10.9 °F 81% 29.84 in 4.0 mi West 12.7 mph 18.4 mph N/A Snow Light Snow
1:35 PM 15.6 °F 0.6 °F 10.4 °F 80% 29.84 in 7.0 mi West 15.0 mph 21.9 mph N/A Snow Light Snow
1:55 PM 16.0 °F 1.1 °F 10.6 °F 79% 29.84 in 10.0 mi West 15.0 mph 20.7 mph N/A Snow Light Snow
2:15 PM 16.3 °F 2.1 °F 11.3 °F 81% 29.84 in 5.0 mi West 13.8 mph 17.3 mph N/A Snow Light Snow
2:35 PM 16.0 °F 1.1 °F 10.0 °F 77% 29.85 in 10.0 mi West 15.0 mph 20.7 mph N/A Snow Light Snow
2:55 PM 15.8 °F 1.4 °F 9.5 °F 76% 29.86 in 10.0 mi West 13.8 mph 18.4 mph N/A   Overcast
3:15 PM 15.8 °F 3.4 °F 9.9 °F 77% 29.85 in 10.0 mi West 10.4 mph - N/A   Overcast
3:34 PM 16.7 °F 6.2 °F 10.6 °F 77% 29.86 in 10.0 mi West 8.1 mph - N/A Snow Light Snow
3:55 PM 16.0 °F 4.4 °F 9.5 °F 76% 29.87 in 10.0 mi West 9.2 mph - N/A   Overcast
4:15 PM 15.8 °F 2.7 °F 9.5 °F 76% 29.89 in 10.0 mi West 11.5 mph 17.3 mph N/A   Overcast
4:35 PM 16.2 °F 10.6 °F 9.9 °F 76% 29.90 in 10.0 mi WNW 3.5 mph - N/A Snow Light Snow
4:55 PM 16.3 °F 10.8 °F 10.2 °F 77% 29.89 in 10.0 mi WSW 3.5 mph - N/A   Overcast
5:15 PM 15.8 °F - 10.2 °F 79% 29.89 in 10.0 mi Calm Calm - N/A   Overcast
5:35 PM 15.6 °F - 10.4 °F 80% 29.89 in 10.0 mi Calm Calm - N/A   Overcast
5:55 PM 15.6 °F - 10.9 °F 82% 29.88 in 10.0 mi Calm Calm - N/A   Overcast
6:14 PM 15.4 °F - 11.1 °F 83% 29.88 in 10.0 mi Calm Calm - N/A   Overcast
6:35 PM 15.4 °F - 11.3 °F 84% 29.89 in 10.0 mi Calm Calm - N/A Snow Light Snow
6:55 PM 15.6 °F 8.3 °F 11.3 °F 83% 29.89 in 10.0 mi South 4.6 mph - N/A   Overcast
7:15 PM 14.9 °F 9.2 °F 11.1 °F 85% 29.88 in 10.0 mi South 3.5 mph - N/A Snow Light Snow
7:35 PM 15.4 °F 9.8 °F 12.0 °F 86% 29.88 in 7.0 mi South 3.5 mph - N/A Snow Light Snow
7:55 PM 16.2 °F 9.0 °F 12.7 °F 86% 29.87 in 10.0 mi SW 4.6 mph - N/A Snow Light Snow
8:15 PM 17.1 °F 10.0 °F 12.7 °F 83% 29.87 in 10.0 mi SW 4.6 mph - N/A   Overcast
8:35 PM 17.4 °F 5.4 °F 12.0 °F 79% 29.87 in 10.0 mi SW 10.4 mph - N/A Snow Light Snow
8:55 PM 17.4 °F 9.1 °F 11.8 °F 79% 29.87 in 10.0 mi SW 5.8 mph - N/A   Overcast
9:15 PM 17.4 °F 10.4 °F 12.0 °F 79% 29.88 in 10.0 mi SW 4.6 mph - N/A   Overcast
9:34 PM 17.4 °F 8.0 °F 12.4 °F 81% 29.88 in 10.0 mi SW 6.9 mph - N/A Snow Light Snow
9:55 PM 17.4 °F 8.0 °F 12.2 °F 80% 29.87 in 10.0 mi SW 6.9 mph - N/A Snow Light Snow
10:15 PM 17.2 °F 7.8 °F 11.7 °F 79% 29.85 in 10.0 mi SW 6.9 mph - N/A Snow Light Snow
10:35 PM 17.1 °F 8.7 °F 11.5 °F 79% 29.84 in 10.0 mi South 5.8 mph - N/A Snow Light Snow
10:55 PM 15.3 °F 6.6 °F 10.4 °F 81% 29.82 in 10.0 mi South 5.8 mph - N/A Snow Light Snow
11:14 PM 14.5 °F 4.6 °F 10.2 °F 83% 29.81 in 10.0 mi SSE 6.9 mph - N/A   Clear
11:35 PM 13.8 °F 3.7 °F 9.5 °F 83% 29.81 in 10.0 mi SSE 6.9 mph - N/A   Clear
11:55 PM 13.8 °F 2.7 °F 9.5 °F 83% 29.80 in 10.0 mi South 8.1 mph - N/A   Clear